KC0RPY Weather Reports


time (UTC)temp
C
wind
direction
speed
KPH
gust
KPH
rain 1hr
cm
rain 24hr
cm
rain mn
cm
humidity
%
barometer
mb
20260510231730 19 48 4.8 8.0 0.00 0.00 0.00 34 1021.9
20260510231228 19 65 0.0 0.0 0.00 0.00 0.00 36 1021.9
20260510230724 20 5 6.4 8.0 0.00 0.00 0.00 34 1022.3
20260510230219 20 120 3.2 3.2 0.00 0.00 0.00 33 1022.3
20260510225717 20 105 3.2 4.8 0.00 0.00 0.00 33 1022.3
20260510225212 20 70 4.8 4.8 0.00 0.00 0.00 34 1022.3
20260510224708 20 88 3.2 3.2 0.00 0.00 0.00 33 1022.3
20260510224205 20 105 4.8 8.0 0.00 0.00 0.00 36 1022.3
20260510223703 20 50 8.0 11.3 0.00 0.00 0.00 34 1021.9
20260510223200 20 106 1.6 3.2 0.00 0.00 0.00 33 1021.9
20260510222656 20 74 6.4 9.7 0.00 0.00 0.00 33 1022.3
20260510222153 20 114 3.2 3.2 0.00 0.00 0.00 35 1022.3
20260510221647 20 95 3.2 3.2 0.00 0.00 0.00 33 1021.9
20260510221145 20 82 4.8 8.0 0.00 0.00 0.00 33 1022.3
20260510220642 20 134 1.6 3.2 0.00 0.00 0.00 32 1022.3
20260510220137 20 129 1.6 1.6 0.00 0.00 0.00 34 1022.3
20260510215634 20 67 4.8 8.0 0.00 0.00 0.00 34 1021.9
20260510215133 20 55 4.8 8.0 0.00 0.00 0.00 34 1022.3
20260510214629 20 65 3.2 3.2 0.00 0.00 0.00 35 1021.9
20260510214125 20 109 1.6 1.6 0.00 0.00 0.00 33 1022.3
20260510213623 20 113 1.6 3.2 0.00 0.00 0.00 34 1021.9
20260510213120 20 99 3.2 3.2 0.00 0.00 0.00 33 1021.9
20260510212616 20 113 1.6 1.6 0.00 0.00 0.00 35 1022.3
20260510212113 20 97 3.2 3.2 0.00 0.00 0.00 34 1021.9
20260510211605 20 108 1.6 3.2 0.00 0.00 0.00 34 1021.9
20260510211104 20 52 6.4 9.7 0.00 0.00 0.00 34 1021.9
20260510210601 20 351 8.0 11.3 0.00 0.00 0.00 35 1021.9
20260510210056 20 108 0.0 0.0 0.00 0.00 0.00 36 1022.3
20260510205555 19 119 3.2 3.2 0.00 0.00 0.00 34 1022.3
20260510205051 19 82 3.2 4.8 0.00 0.00 0.00 34 1022.3
20260510204548 20 82 3.2 3.2 0.00 0.00 0.00 35 1022.3
20260510204045 19 20 6.4 9.7 0.00 0.00 0.00 36 1022.3
20260510203542 18 91 4.8 4.8 0.00 0.00 0.00 36 1022.3
20260510203039 18 33 6.4 8.0 0.00 0.00 0.00 36 1022.6
20260510202537 18 54 6.4 8.0 0.00 0.00 0.00 36 1022.3
20260510202034 18 113 1.6 3.2 0.00 0.00 0.00 37 1022.3
20260510201531 18 8 6.4 8.0 0.00 0.00 0.00 36 1022.6
20260510201028 18 4 8.0 12.9 0.00 0.00 0.00 35 1022.6
20260510200523 18 32 4.8 4.8 0.00 0.00 0.00 34 1022.6
20260510200022 18 38 8.0 12.9 0.00 0.00 0.00 33 1022.6
20260510195519 18 7 4.8 11.3 0.00 0.00 0.00 36 1022.6
20260510195014 18 3 3.2 4.8 0.00 0.00 0.00 37 1022.6
20260510194510 18 22 8.0 9.7 0.00 0.00 0.00 36 1023.0
20260510194006 18 114 1.6 1.6 0.00 0.00 0.00 36 1023.0
20260510193501 18 63 4.8 4.8 0.00 0.00 0.00 38 1023.0
20260510192957 18 51 8.0 9.7 0.00 0.00 0.00 36 1023.0
20260510192452 18 86 3.2 4.8 0.00 0.00 0.00 37 1023.0
20260510191948 18 133 0.0 1.6 0.00 0.00 0.00 36 1023.0
20260510191444 17 116 1.6 3.2 0.00 0.00 0.00 38 1023.0
20260510190942 17 359 6.4 8.0 0.00 0.00 0.00 38 1023.0
20260510190439 18 27 3.2 4.8 0.00 0.00 0.00 39 1023.0
20260510185936 18 30 3.2 4.8 0.00 0.00 0.00 39 1023.0
20260510185433 19 100 1.6 3.2 0.00 0.00 0.00 36 1023.0
20260510184930 18 128 1.6 1.6 0.00 0.00 0.00 38 1023.0
20260510184428 18 100 1.6 1.6 0.00 0.00 0.00 35 1023.0
20260510183927 18 104 1.6 3.2 0.00 0.00 0.00 37 1023.0
20260510183424 18 113 1.6 3.2 0.00 0.00 0.00 37 1023.0
20260510182918 18 82 4.8 4.8 0.00 0.00 0.00 38 1022.6
20260510182415 17 75 3.2 3.2 0.00 0.00 0.00 38 1023.0
20260510181911 17 30 3.2 3.2 0.00 0.00 0.00 37 1023.0
20260510181409 17 40 4.8 8.0 0.00 0.00 0.00 36 1023.0
20260510180904 18 17 3.2 4.8 0.00 0.00 0.00 38 1023.0
20260510180402 17 104 4.8 4.8 0.00 0.00 0.00 34 1023.0
20260510175858 17 50 3.2 4.8 0.00 0.00 0.00 36 1023.0
20260510175355 17 64 4.8 4.8 0.00 0.00 0.00 36 1023.0
20260510174850 18 114 1.6 3.2 0.00 0.00 0.00 37 1023.3
20260510174348 17 116 1.6 3.2 0.00 0.00 0.00 36 1023.0
20260510173844 18 120 3.2 3.2 0.00 0.00 0.00 36 1023.0
20260510173340 18 112 3.2 3.2 0.00 0.00 0.00 36 1023.0
20260510172836 18 26 4.8 8.0 0.00 0.00 0.00 37 1023.0
20260510172332 17 132 1.6 1.6 0.00 0.00 0.00 36 1023.0
20260510171830 18 58 8.0 9.7 0.00 0.00 0.00 35 1023.3
20260510171327 17 124 1.6 1.6 0.00 0.00 0.00 37 1023.0
20260510170824 17 125 1.6 1.6 0.00 0.00 0.00 37 1023.0
20260510170320 17 339 6.4 8.0 0.00 0.00 0.00 39 1023.0
20260510165815 17 135 1.6 3.2 0.00 0.00 0.00 40 1023.0
20260510165312 17 124 4.8 4.8 0.00 0.00 0.00 37 1023.0
20260510164809 17 92 1.6 3.2 0.00 0.00 0.00 38 1023.0
20260510164307 17 128 0.0 0.0 0.00 0.00 0.00 39 1023.0
20260510163806 16 114 1.6 1.6 0.00 0.00 0.00 39 1023.0
20260510163302 16 118 1.6 1.6 0.00 0.00 0.00 40 1022.6
20260510162802 16 57 6.4 8.0 0.00 0.00 0.00 38 1023.0
20260510162259 17 82 3.2 3.2 0.00 0.00 0.00 39 1022.6
20260510161755 17 124 0.0 1.6 0.00 0.00 0.00 38 1022.6
20260510161251 17 122 3.2 3.2 0.00 0.00 0.00 38 1023.0
20260510160748 16 49 8.0 12.9 0.00 0.00 0.00 38 1023.0
20260510160244 16 56 1.6 1.6 0.00 0.00 0.00 39 1022.6
20260510155740 16 98 3.2 4.8 0.00 0.00 0.00 37 1022.6
20260510155236 16 79 1.6 3.2 0.00 0.00 0.00 41 1022.6
20260510154732 16 60 4.8 4.8 0.00 0.00 0.00 38 1022.6
20260510154228 16 58 4.8 4.8 0.00 0.00 0.00 38 1022.6
20260510153723 16 75 3.2 3.2 0.00 0.00 0.00 39 1022.6
20260510153219 16 53 4.8 4.8 0.00 0.00 0.00 38 1022.6
20260510152716 16 117 3.2 3.2 0.00 0.00 0.00 38 1022.6
20260510152212 16 93 1.6 1.6 0.00 0.00 0.00 38 1022.6
20260510151709 16 40 8.0 9.7 0.00 0.00 0.00 38 1022.3
20260510151208 16 129 1.6 1.6 0.00 0.00 0.00 39 1022.3
20260510150703 16 86 3.2 3.2 0.00 0.00 0.00 40 1022.3
20260510150158 16 100 4.8 8.0 0.00 0.00 0.00 38 1022.3
20260510145655 15 101 3.2 3.2 0.00 0.00 0.00 39 1022.3
20260510145151 15 88 1.6 1.6 0.00 0.00 0.00 40 1022.3
20260510144647 15 126 1.6 1.6 0.00 0.00 0.00 42 1022.3
20260510144144 15 144 1.6 3.2 0.00 0.00 0.00 41 1021.9
20260510143639 15 58 4.8 4.8 0.00 0.00 0.00 40 1022.3
20260510143136 15 124 1.6 1.6 0.00 0.00 0.00 42 1022.3
20260510142632 14 109 1.6 1.6 0.00 0.00 0.00 43 1022.3
20260510142129 14 88 3.2 3.2 0.00 0.00 0.00 41 1022.3
20260510141626 14 101 1.6 1.6 0.00 0.00 0.00 44 1022.3
20260510141124 14 114 1.6 1.6 0.00 0.00 0.00 45 1022.3
20260510140620 14 116 1.6 1.6 0.00 0.00 0.00 45 1022.3
20260510140119 14 117 1.6 3.2 0.00 0.00 0.00 45 1022.3
20260510135615 14 104 1.6 3.2 0.00 0.00 0.00 43 1022.3
20260510135111 14 73 3.2 4.8 0.00 0.00 0.00 45 1021.9
20260510134608 14 113 1.6 1.6 0.00 0.00 0.00 46 1021.9
20260510134106 14 103 1.6 1.6 0.00 0.00 0.00 46 1021.9
20260510133602 13 114 1.6 3.2 0.00 0.00 0.00 46 1021.9
20260510133057 13 119 1.6 1.6 0.00 0.00 0.00 46 1021.9
20260510132554 13 122 1.6 3.2 0.00 0.00 0.00 48 1021.9
20260510132051 13 122 1.6 1.6 0.00 0.00 0.00 47 1022.3
20260510131549 13 104 3.2 3.2 0.00 0.00 0.00 48 1021.9
20260510131046 13 118 1.6 3.2 0.00 0.00 0.00 50 1021.9
20260510130542 13 100 1.6 3.2 0.00 0.00 0.00 48 1021.6
20260510130040 13 99 4.8 8.0 0.00 0.00 0.00 49 1021.9
20260510125536 13 24 4.8 4.8 0.00 0.00 0.00 47 1021.3
20260510125032 13 83 1.6 3.2 0.00 0.00 0.00 47 1021.6
20260510124529 13 126 1.6 3.2 0.00 0.00 0.00 46 1021.3
20260510124026 13 119 3.2 4.8 0.00 0.00 0.00 46 1021.3
20260510123521 13 64 4.8 8.0 0.00 0.00 0.00 46 1021.3
20260510123017 13 87 3.2 3.2 0.00 0.00 0.00 48 1020.5
20260510122513 13 80 3.2 3.2 0.00 0.00 0.00 47 1020.5
20260510122010 13 73 3.2 3.2 0.00 0.00 0.00 46 1020.5
20260510121507 13 73 3.2 4.8 0.00 0.00 0.00 45 1020.2
20260510121004 13 80 3.2 3.2 0.00 0.00 0.00 47 1020.2
20260510120501 13 99 3.2 4.8 0.00 0.00 0.00 47 1020.2
20260510115957 13 107 1.6 3.2 0.00 0.00 0.00 48 1020.2
20260510115455 13 84 3.2 3.2 0.00 0.00 0.00 46 1019.8
20260510114950 13 108 3.2 3.2 0.00 0.00 0.00 47 1019.5
20260510114447 13 93 1.6 3.2 0.00 0.00 0.00 47 1019.8
20260510113943 13 61 3.2 4.8 0.00 0.00 0.00 47 1019.5
20260510113438 13 87 3.2 3.2 0.00 0.00 0.00 47 1019.5
20260510112936 13 81 3.2 3.2 0.00 0.00 0.00 47 1019.5
20260510112433 13 80 1.6 3.2 0.00 0.00 0.00 48 1019.5
20260510111929 13 82 3.2 3.2 0.00 0.00 0.00 47 1019.1
20260510111425 13 55 4.8 8.0 0.00 0.00 0.00 48 1018.8
20260510110921 13 107 4.8 8.0 0.00 0.00 0.00 51 1018.8
20260510110418 13 56 3.2 3.2 0.00 0.00 0.00 50 1019.1
20260510105914 13 85 4.8 4.8 0.00 0.00 0.00 50 1019.1
20260510105415 14 60 4.8 4.8 0.00 0.00 0.00 49 1019.1
20260510104905 14 92 3.2 3.2 0.00 0.00 0.00 48 1019.1
20260510104402 14 72 3.2 3.2 0.00 0.00 0.00 48 1018.8
20260510103858 14 84 3.2 3.2 0.00 0.00 0.00 48 1018.8
20260510103356 14 91 3.2 3.2 0.00 0.00 0.00 47 1018.8
20260510102851 14 99 1.6 3.2 0.00 0.00 0.00 48 1018.8
20260510102347 14 98 3.2 3.2 0.00 0.00 0.00 49 1018.8
20260510101844 14 83 3.2 4.8 0.00 0.00 0.00 50 1018.5
20260510101343 14 91 3.2 3.2 0.00 0.00 0.00 50 1018.5
20260510100838 14 75 3.2 3.2 0.00 0.00 0.00 50 1018.5
20260510100336 14 97 3.2 3.2 0.00 0.00 0.00 50 1018.5
20260510095832 15 74 3.2 3.2 0.00 0.00 0.00 49 1018.1
20260510095327 15 103 1.6 3.2 0.00 0.00 0.00 51 1018.1
20260510094826 15 74 3.2 3.2 0.00 0.00 0.00 51 1017.7
20260510094322 15 80 3.2 3.2 0.00 0.00 0.00 53 1017.7
20260510093819 14 80 4.8 4.8 0.00 0.00 0.00 54 1018.1
20260510093315 14 98 1.6 1.6 0.00 0.00 0.00 56 1018.1
20260510092811 15 116 1.6 3.2 0.00 0.00 0.00 58 1018.1
20260510092307 15 121 0.0 1.6 0.00 0.00 0.00 58 1017.7
20260510091803 15 81 6.4 9.7 0.00 0.00 0.00 58 1017.7
20260510091301 15 82 3.2 3.2 0.00 0.00 0.00 59 1017.7
20260510090756 15 89 1.6 3.2 0.00 0.00 0.00 58 1017.7
20260510090253 15 73 3.2 3.2 0.00 0.00 0.00 58 1017.7
20260510085749 15 103 1.6 1.6 0.00 0.00 0.00 58 1017.7
20260510085244 15 86 1.6 3.2 0.00 0.00 0.00 60 1017.7
20260510084740 15 101 3.2 3.2 0.00 0.00 0.00 59 1017.7
20260510084237 16 85 3.2 3.2 0.00 0.00 0.00 59 1017.3
20260510083733 16 75 3.2 3.2 0.00 0.00 0.00 60 1017.0
20260510083231 16 112 1.6 1.6 0.00 0.00 0.00 61 1017.0
20260510082726 16 65 4.8 4.8 0.00 0.00 0.00 61 1016.7
20260510082223 16 83 3.2 4.8 0.00 0.00 0.00 61 1017.0
20260510081722 16 36 4.8 8.0 0.00 0.00 0.00 62 1017.0
20260510081218 16 56 4.8 8.0 0.00 0.00 0.00 62 1016.7
20260510080713 16 73 3.2 4.8 0.00 0.00 0.00 62 1016.3
20260510080209 16 60 3.2 3.2 0.00 0.00 0.00 61 1016.3
20260510075706 16 88 1.6 3.2 0.00 0.00 0.00 60 1016.3
20260510075204 16 114 1.6 1.6 0.00 0.00 0.00 59 1016.3
20260510074701 17 86 4.8 8.0 0.00 0.00 0.00 58 1016.7
20260510074157 16 89 3.2 3.2 0.00 0.00 0.00 59 1016.7
20260510073654 16 57 3.2 3.2 0.00 0.00 0.00 60 1016.7
20260510073149 16 104 3.2 3.2 0.00 0.00 0.00 60 1016.3
20260510072646 16 115 1.6 1.6 0.00 0.00 0.00 60 1016.7
20260510072142 16 120 1.6 1.6 0.00 0.00 0.00 59 1016.3
20260510071638 16 123 0.0 0.0 0.00 0.00 0.00 59 1016.3
20260510071136 16 123 1.6 1.6 0.00 0.00 0.00 59 1016.0
20260510070633 16 126 0.0 1.6 0.00 0.00 0.00 59 1016.0
20260510070131 17 124 0.0 1.6 0.00 0.00 0.00 58 1016.0
20260510065626 17 116 1.6 1.6 0.00 0.00 0.00 57 1016.3
20260510065122 17 119 1.6 1.6 0.00 0.00 0.00 57 1016.0
20260510064619 17 117 1.6 1.6 0.00 0.00 0.00 57 1016.0
20260510064116 17 103 1.6 3.2 0.00 0.00 0.00 56 1016.0
20260510063612 18 106 1.6 1.6 0.00 0.00 0.00 55 1016.0
20260510063110 18 102 1.6 3.2 0.00 0.00 0.00 54 1016.0
20260510062605 18 117 1.6 1.6 0.00 0.00 0.00 53 1015.7
20260510062100 18 114 1.6 3.2 0.00 0.00 0.00 52 1015.7
20260510061552 18 114 3.2 3.2 0.00 0.00 0.00 51 1015.3
20260510061049 18 115 1.6 3.2 0.00 0.00 0.00 52 1016.0
20260510060544 19 125 1.6 1.6 0.00 0.00 0.00 52 1015.3
20260510060041 19 110 1.6 1.6 0.00 0.00 0.00 51 1015.3
20260510055537 19 110 3.2 4.8 0.00 0.00 0.00 50 1015.3
20260510055036 19 105 3.2 4.8 0.00 0.00 0.00 50 1015.7
20260510054531 19 117 3.2 3.2 0.00 0.00 0.00 52 1015.3
20260510054026 19 111 3.2 3.2 0.00 0.00 0.00 54 1015.7
20260510053521 17 69 6.4 8.0 0.00 0.00 0.00 63 1015.7
20260510053019 18 130 1.6 1.6 0.00 0.00 0.00 66 1015.7
20260510052514 18 134 0.0 0.0 0.00 0.00 0.00 63 1015.3
20260510052011 18 101 3.2 3.2 0.00 0.00 0.00 63 1015.3
20260510051506 18 148 0.0 0.0 0.00 0.00 0.00 63 1015.7
20260510051003 18 141 0.0 0.0 0.00 0.00 0.00 61 1015.7
20260510050501 19 122 1.6 1.6 0.00 0.00 0.00 60 1015.0
20260510045957 18 114 3.2 3.2 0.00 0.00 0.00 61 1015.3
20260510045455 19 168 4.8 4.8 0.00 0.00 0.00 61 1015.3
20260510044950 18 160 3.2 3.2 0.00 0.00 0.00 62 1015.0
20260510044448 19 266 6.4 8.0 0.00 0.00 0.00 59 1014.5
20260510043944 19 118 1.6 3.2 0.00 0.00 0.00 59 1014.2
20260510043440 19 110 1.6 3.2 0.00 0.00 0.00 58 1013.9
20260510042939 20 120 1.6 1.6 0.00 0.00 0.00 57 1013.9
20260510042434 19 120 1.6 1.6 0.00 0.00 0.00 58 1013.5
20260510041930 20 124 1.6 1.6 0.00 0.00 0.00 57 1013.5
20260510041427 20 119 1.6 1.6 0.00 0.00 0.00 57 1013.2
20260510040925 20 124 1.6 1.6 0.00 0.00 0.00 57 1013.2
20260510040421 20 128 0.0 1.6 0.00 0.00 0.00 56 1013.2
20260510035917 20 128 0.0 0.0 0.00 0.00 0.00 56 1013.2
20260510035413 20 127 1.6 1.6 0.00 0.00 0.00 56 1012.8
20260510034908 20 127 0.0 0.0 0.00 0.00 0.00 57 1012.8
20260510034407 19 125 0.0 0.0 0.00 0.00 0.00 58 1012.8
20260510033903 19 124 0.0 0.0 0.00 0.00 0.00 59 1012.8
20260510033359 19 126 0.0 0.0 0.00 0.00 0.00 60 1012.8
20260510032856 19 124 0.0 0.0 0.00 0.00 0.00 59 1012.8
20260510032353 19 117 0.0 0.0 0.00 0.00 0.00 59 1013.2
20260510031848 19 121 0.0 0.0 0.00 0.00 0.00 60 1012.8
20260510031344 19 125 0.0 0.0 0.00 0.00 0.00 61 1012.5
20260510030843 19 131 0.0 0.0 0.00 0.00 0.00 62 1012.5
20260510030340 19 129 0.0 0.0 0.00 0.00 0.00 61 1012.5
20260510025838 19 118 0.0 0.0 0.00 0.00 0.00 58 1012.8
20260510025335 20 124 0.0 0.0 0.00 0.00 0.00 56 1012.8
20260510024832 20 117 1.6 1.6 0.00 0.00 0.00 54 1013.2
20260510024329 20 81 3.2 3.2 0.00 0.00 0.00 55 1012.8
20260510023825 20 110 3.2 3.2 0.00 0.00 0.00 54 1012.8
20260510023321 20 131 1.6 3.2 0.00 0.00 0.00 54 1012.8
20260510022819 20 115 1.6 1.6 0.00 0.00 0.00 54 1012.5
20260510022318 20 127 1.6 1.6 0.00 0.00 0.00 54 1012.5
20260510021817 20 126 1.6 1.6 0.00 0.00 0.00 54 1012.2
20260510021315 20 115 1.6 1.6 0.00 0.00 0.00 54 1011.8
20260510020811 20 114 1.6 1.6 0.00 0.00 0.00 54 1011.5
20260510020306 20 103 0.0 0.0 0.00 0.00 0.00 53 1011.8
20260510015802 21 123 1.6 1.6 0.00 0.00 0.00 53 1011.5
20260510015258 20 73 4.8 9.7 0.00 0.00 0.00 53 1011.5
20260510014753 21 115 1.6 1.6 0.00 0.00 0.00 55 1011.5
20260510014251 21 118 1.6 1.6 0.00 0.00 0.00 52 1011.5
20260510013747 21 65 3.2 3.2 0.00 0.00 0.00 51 1011.5
20260510013243 21 129 1.6 1.6 0.00 0.00 0.00 52 1011.1
20260510012737 21 117 1.6 1.6 0.00 0.00 0.00 52 1011.1
20260510012232 21 122 1.6 1.6 0.00 0.00 0.00 51 1011.1
20260510011727 21 124 1.6 1.6 0.00 0.00 0.00 51 1011.1
20260510011222 22 125 1.6 1.6 0.00 0.00 0.00 51 1010.7
20260510010719 22 115 1.6 1.6 0.00 0.00 0.00 50 1010.7
20260510010216 22 124 1.6 1.6 0.00 0.00 0.00 50 1010.4
20260510005713 22 117 1.6 1.6 0.00 0.00 0.00 48 1010.7
20260510005209 22 104 3.2 3.2 0.00 0.00 0.00 48 1010.4
20260510004707 22 30 4.8 8.0 0.00 0.00 0.00 48 1010.4
20260510004205 23 83 3.2 4.8 0.00 0.00 0.00 47 1010.4
20260510003702 23 34 8.0 11.3 0.00 0.00 0.00 45 1010.4
20260510003158 23 39 9.7 11.3 0.00 0.00 0.00 45 1010.4
20260510002657 23 9 6.4 8.0 0.00 0.00 0.00 46 1010.4
20260510002155 23 59 8.0 9.7 0.00 0.00 0.00 44 1010.0
20260510001651 24 54 8.0 11.3 0.00 0.00 0.00 44 1010.0
20260510001145 24 80 4.8 4.8 0.00 0.00 0.00 43 1010.0
20260510000645 24 74 4.8 8.0 0.00 0.00 0.00 43 1010.0
20260510000143 25 17 9.7 11.3 0.00 0.00 0.00 42 1010.0
20260509235639 25 52 11.3 12.9 0.00 0.00 0.00 41 1010.0
20260509235136 25 317 9.7 11.3 0.00 0.00 0.00 40 1009.7
20260509234631 25 293 6.4 8.0 0.00 0.00 0.00 41 1009.7
20260509234129 26 133 1.6 3.2 0.00 0.00 0.00 41 1009.4
20260509233627 26 287 8.0 9.7 0.00 0.00 0.00 40 1009.4
20260509233124 26 351 6.4 8.0 0.00 0.00 0.00 39 1009.4
20260509232620 26 359 6.4 9.7 0.00 0.00 0.00 38 1009.4
20260509232117 26 199 3.2 3.2 0.00 0.00 0.00 37 1009.4